Weather History for KCQC - April, 2013

Change the Weather History Date:

Wednesday, April 3, 2013

  Actual Average (KSAF) Record (KSAF)
Temperature  
Mean Temperature 40 °F -  
Max Temperature 57 °F 0 °F 73 °F (2011)
Min Temperature 24 °F - 24 °F (1999)
Degree Days  
Heating Degree Days 24    
Moisture  
Dew Point 25 °F    
Average Humidity 67    
Maximum Humidity 96    
Minimum Humidity 25    
Precipitation  
Precipitation 0.00 in - - ()
Sea Level Pressure  
Sea Level Pressure 30.06 in    
Wind  
Wind Speed 7 mph (East)    
Max Wind Speed 16 mph    
Max Gust Speed 23 mph    
Visibility 8 miles    
Events Fog    
Averages and records for this station are not official NWS values.
T = Trace of Precipitation, MM = Missing Value Source: NWS Daily Summary

Daily Weather History Graph

Daily Weather History Graph

Search for Another Location

Airport or City:

Trip Planner

Search our weather history database for the weather conditions in past years. The results will help you decide how hot, cold, wet, or windy it might be!

Date:

Astronomy

Apr. 03, 2013 Rise Set
Actual Time 6:46 AM MDT 7:25 PM MDT
Civil Twilight 6:20 AM MDT 7:51 PM MDT
Nautical Twilight 5:50 AM MDT 8:21 PM MDT
Astronomical Twilight 5:19 AM MDT 8:52 PM MDT
Moon 2:14 AM MDT (4/3) 12:55 PM MDT (4/3)
Length of Visible Light 13h 30m
Length of Day
12h 39m
Last Quarter, 44% of the Moon is Illuminated
Apr 3
Last Quarter
Apr 10
New
Apr 18
First Quarter
Apr 25
Full
May 2
Last Quarter

Hourly Weather History & Observations

Time (MDT) Temp. Windchill Dew Point Humidity Pressure Visibility Wind Dir Wind Speed Gust Speed Precip Events Conditions
12:53 AM 30.9 °F 21.7 °F 27.0 °F 85% 30.01 in 10.0 mi East 11.5 mph - N/A   Overcast
1:21 AM 30.2 °F 20.8 °F 26.6 °F 86% 30.07 in 10.0 mi ESE 11.5 mph - N/A   Overcast
1:53 AM 30.0 °F 23.2 °F 27.0 °F 88% 30.00 in 9.0 mi ESE 6.9 mph - N/A   Overcast
2:40 AM 30.2 °F 25.4 °F 26.6 °F 86% 30.07 in 10.0 mi East 4.6 mph - N/A   Overcast
2:53 AM 30.0 °F 25.2 °F 27.0 °F 88% 29.97 in 10.0 mi East 4.6 mph - N/A   Overcast
3:53 AM 32.0 °F 28.7 °F 27.0 °F 82% 29.96 in 10.0 mi East 3.5 mph - N/A   Overcast
4:12 AM 30.2 °F 26.7 °F 24.8 °F 80% 30.06 in 10.0 mi East 3.5 mph - N/A   Scattered Clouds
4:53 AM 27.0 °F 23.0 °F 24.1 °F 89% 30.03 in 10.0 mi ESE 3.5 mph - N/A   Clear
5:05 AM 26.6 °F - 24.8 °F 93% 30.07 in 3.0 mi Calm Calm - N/A   Scattered Clouds
5:07 AM 26.6 °F - 23.0 °F 86% 30.07 in 1.2 mi Calm Calm - N/A   Scattered Clouds
5:09 AM 26.6 °F - 23.0 °F 86% 30.07 in 0.8 mi Calm Calm - N/A   Mist
5:19 AM 24.8 °F - 21.2 °F 86% 30.07 in 0.2 mi Calm Calm - N/A Fog Light Freezing Fog
5:53 AM 26.1 °F 21.9 °F 25.0 °F 96% 30.04 in 0.2 mi SSE 3.5 mph - N/A Fog Light Freezing Fog
6:53 AM 27.0 °F - 24.1 °F 89% 30.08 in 0.2 mi Calm Calm - N/A Fog Light Freezing Fog
7:36 AM 26.6 °F - 24.8 °F 93% 30.10 in 0.8 mi Calm Calm - N/A   Mist
7:40 AM 26.6 °F - 24.8 °F 93% 30.10 in 1.0 mi Calm Calm - N/A   Scattered Clouds
7:47 AM 28.4 °F - 24.8 °F 86% 30.10 in 3.0 mi Calm Calm - N/A   Mostly Cloudy
7:53 AM 28.9 °F - 26.1 °F 89% 30.10 in 7.0 mi Calm Calm - N/A   Scattered Clouds
8:53 AM 33.1 °F - 28.0 °F 82% 30.13 in 10.0 mi Calm Calm - N/A   Clear
9:53 AM 39.0 °F 35.7 °F 28.0 °F 65% 30.10 in 10.0 mi WSW 4.6 mph - N/A   Clear
10:53 AM 46.0 °F 42.5 °F 28.0 °F 50% 30.09 in 10.0 mi Variable 6.9 mph - N/A   Partly Cloudy
11:53 AM 50.0 °F - 26.1 °F 39% 30.04 in 10.0 mi WNW 13.8 mph 19.6 mph N/A   Clear
12:53 PM 52.0 °F - 24.1 °F 34% 30.01 in 10.0 mi NW 11.5 mph 18.4 mph N/A   Scattered Clouds
1:53 PM 52.0 °F - 23.0 °F 32% 30.01 in 10.0 mi WNW 11.5 mph 18.4 mph N/A   Mostly Cloudy
2:53 PM 53.1 °F - 19.9 °F 27% 30.00 in 10.0 mi NW 15.0 mph - N/A   Overcast
3:53 PM 53.1 °F - 19.9 °F 27% 29.99 in 10.0 mi NW 12.7 mph - N/A   Mostly Cloudy
4:53 PM 57.0 °F - 21.0 °F 25% 29.99 in 10.0 mi WNW 16.1 mph 23.0 mph N/A   Partly Cloudy
5:31 PM 53.6 °F - 24.8 °F 33% 30.09 in 10.0 mi ENE 16.1 mph 20.7 mph N/A   Scattered Clouds
5:53 PM 52.0 °F - 26.1 °F 37% 30.04 in 10.0 mi East 13.8 mph - N/A   Mostly Cloudy
6:53 PM 48.0 °F - 27.0 °F 44% 30.07 in 10.0 mi ESE 9.2 mph - 0.00 in   Scattered Clouds
7:53 PM 44.1 °F 40.1 °F 26.1 °F 49% 30.10 in 10.0 mi East 6.9 mph - N/A   Clear
8:53 PM 43.0 °F 37.2 °F 26.1 °F 51% 30.12 in 10.0 mi East 10.4 mph - N/A   Clear
9:53 PM 39.9 °F 33.9 °F 26.1 °F 58% 30.12 in 10.0 mi ESE 9.2 mph - N/A   Clear
10:53 PM 39.0 °F 34.0 °F 26.1 °F 60% 30.11 in 10.0 mi East 6.9 mph - N/A   Scattered Clouds
11:53 PM 37.0 °F - 25.0 °F 62% 30.12 in 10.0 mi Calm Calm - N/A   Clear